Tracking 17856 objects as of 27-September-2016
HD Live streaming from Space Station
objects crossing your sky now

TURKSAT 2A

Track TURKSAT 2A now!
TURKSAT 2A is classified as:


NORAD ID: 26666
Int'l Code: 2001-002A
Perigee: 35,856.2 km
Apogee: 35,884.0 km
Inclination: 0.6 °
Period: 1,440.0 minutes
Semi major axis: 42241 km
RCS: 3.9 m2 (large)
Launch date: January 10, 2001
Source: Turkey (TURK)
Launch site: FRENCH GUIANA (FRGUI)

32 Ku-band transponders; direct-to-home voice, video, and data transmissions to countries between central Europe and the Indian subcontinent.
Your satellite tracking list
Your tracking list is empty





NASA's NSSDC Master Catalog

Two Line Element Set (TLE):
1 26666U 01002A   16270.10981439 -.00000250  00000-0  10000-3 0  9992
2 26666   0.5997  84.6513 0003297  75.6201 286.5436  1.00269388 57561
Source of the keplerian elements: AFSPC

N2YO: 680